Location: Garmissen
(52.2063°N, 10.1113°E)
Time: 15:34:08
(UTC+00:00)

Daily predictions for brighter satellites

Satellite Brightness Start Highest point End
(mag) Time Altitude Azimuth Time Altitude Azimuth Time Altitude Azimuth
BREEZE-M DEB (TANK) 3.0 16:09:21 10° W 16:11:22 41° S 16:16:21 10° ESE
Cosmos 1371 Rocket 4.3 16:07:37 10° S 16:12:41 49° ESE 16:17:45 10° NNE
USA 59 Rocket 0.9 16:14:11 10° NNW 16:16:28 18° NNE 16:19:01 10° ENE
COSMOS 2455 4.1 16:13:56 10° NNW 16:18:45 24° NNE 16:23:32 10° ENE
Cosmos 1624 Rocket 4.2 16:14:02 10° S 16:19:10 56° ESE 16:24:23 10° NNE
Cosmos 1741 Rocket 4.4 16:14:23 10° NNW 16:19:22 42° NE 16:24:18 10° SE
BREEZE-M DEB (TANK) 4.0 16:14:41 10° WSW 16:21:20 56° S 16:24:55 10° E
Cosmos 1328 Rocket 3.8 16:17:34 10° SSE 16:21:46 48° E 16:26:00 10° NNE
NOSS 2-1 (C) 4.5 16:20:02 10° NNW 16:22:15 18° NNE 16:24:41 10° ENE
Cosmos 2341 Rocket 4.1 16:18:02 10° N 16:24:19 59° ENE 16:30:30 10° SSE
Cosmos 2369 Rocket 3.6 16:20:13 10° NW 16:25:38 45° WSW 16:31:00 10° S
Cosmos 1850 Rocket 4.2 16:20:52 10° NNW 16:26:02 50° ENE 16:31:11 10° SE
Cosmos 676 Rocket 4.3 16:24:26 10° NNW 16:29:38 74° WSW 16:34:50 10° SSE
NOSS 3-4 (A) 4.0 16:26:39 10° S 16:31:16 31° ESE 16:36:15 10° ENE
NOSS 3-4 (C) 4.1 16:26:48 10° S 16:31:27 31° ESE 16:36:25 10° ENE
CZ-2D R/B 3.1 16:28:53 10° SE 16:31:51 41° ENE 16:34:50 10° N
Cosmos 332 Rocket 3.8 16:27:29 10° NNW 16:32:15 63° ENE 16:37:00 10° SE
SJ 16-02 2.8 16:29:48 10° NW 16:33:51 42° WSW 16:37:53 10° S
Thor Agena Rocket 3.5 16:28:57 10° SSE 16:33:59 87° ENE 16:39:03 10° NNW
UNK 3.9 16:30:17 10° NNE 16:34:43 53° E 16:39:07 10° S
Cosmos 1943 3.3 16:29:57 10° SSW 16:35:30 63° ESE 16:41:07 10° NE
ATLAS 3B R/B 3.7 16:28:24 10° W 16:35:50 45° NNW 16:43:22 10° NE
SPOT 1/Viking Rocket 3.9 16:31:07 10° SE 16:35:57 43° ENE 16:40:47 10° N
ATLAS 5 CENTAUR R/B 0.7 16:33:22 10° SSW 16:36:19 62° SE 16:39:15 12° NE
Cosmos 1703 3.7 16:34:37 10° SSE 16:37:31 29° E 16:40:26 10° NNE
Nadezhda 1 Rocket 4.2 16:35:16 10° SSW 16:41:20 75° WNW 16:47:27 10° N
IRS-1C 4.1 16:37:05 10° SSE 16:42:22 74° ENE 16:47:43 10° NNW
NOSS 3-1 (A) 4.5 16:38:31 10° NW 16:43:52 32° NNE 16:49:39 13° ENE
RESURS DK-1 4.1 16:42:53 10° SE 16:45:10 15° ESE 16:46:26 13° E
YAOGAN 1 3.2 16:43:48 10° SE 16:47:32 31° ENE 16:51:20 10° N
Cosmos 1515 Rocket 4.1 16:44:07 10° SSE 16:48:12 39° E 16:52:21 10° NNE
Landsat 7 3.9 16:43:39 10° SSE 16:48:18 82° WSW 16:53:00 10° NNW
AQUARIUS 4.0 16:45:02 10° SSE 16:49:24 71° ENE 16:53:50 10° N
Cosmos 1452 Rocket 4.3 16:45:04 10° SSE 16:49:40 32° ESE 16:54:03 11° NE
SL-8 Rocket 4.0 16:45:17 10° N 16:51:33 88° E 16:57:43 10° S
MOS 1 Rocket 3.6 16:48:05 10° SSE 16:53:21 85° WSW 16:58:23 10° NNW
ISS -2.2 16:51:05 10° SSW 16:53:52 25° SSE 16:55:51 15° E
Cosmos 2237 Rocket 4.0 16:49:34 10° W 16:53:57 23° NW 16:58:22 10° NNE
Radarsat Rocket 4.3 16:48:43 10° SE 16:54:24 42° ENE 16:59:51 10° N
NOSS 2-1 (D) 4.0 16:51:49 10° NNW 16:54:32 26° NNE 16:56:19 18° ENE
SMAP 3.6 16:50:58 10° S 16:55:35 62° WSW 17:00:15 10° NNW
SAR-Lupe-4 3.6 16:52:18 10° SSE 16:55:49 58° ENE 16:59:22 10° N
Cosmos 2333 Rocket 4.2 16:53:47 10° NNW 16:56:01 12° N 16:58:15 10° NNE
USA 276 3.6 16:54:56 10° SSW 16:56:34 17° SSE 16:57:36 14° ESE
SL-16 R/B 3.1 16:53:04 10° WSW 16:58:29 45° NW 17:03:56 10° NNE
NOSS 3-1 (C) 4.2 16:53:23 10° NW 16:59:23 43° NNE 17:05:56 13° E
Cosmos 2322 Rocket 4.3 17:00:27 10° NNW 17:02:13 11° N 17:03:57 10° NNE
Resurs 01 Rocket 2.6 17:01:22 10° ESE 17:04:51 24° ENE 17:08:20 10° N
CZ-2D R/B 3.6 17:01:24 10° SE 17:04:59 40° ENE 17:08:35 10° N
ERS-1 4.5 17:01:08 10° SSE 17:06:05 87° WSW 17:11:10 10° NNW
Cosmos 1470 Rocket 3.8 17:02:29 10° NNW 17:06:49 73° W 17:11:08 10° S
SJ-12 4.0 17:05:21 10° S 17:09:09 70° WSW 17:12:59 10° NNW
Cosmos 1656 3.6 17:05:51 10° NNW 17:11:30 67° NE 17:17:00 10° SE
Spot 4 Rocket 4.1 17:07:10 10° SE 17:12:07 51° ENE 17:17:05 10° N
Cosmos 1953 2.6 17:08:27 10° NNW 17:12:07 63° W 17:15:47 10° S
Cosmos 1733 Rocket 4.1 17:10:24 10° NNE 17:13:55 23° ENE 17:14:02 23° ENE
Cosmos 1933 Rocket 3.5 17:10:32 10° N 17:14:56 66° ENE 17:19:16 10° SSE
Cosmos 1821 Rocket 3.9 17:10:09 10° N 17:16:25 82° E 17:22:33 10° SSE
SJ-7 4.4 17:13:39 10° SE 17:17:16 44° ENE 17:20:54 10° N
Meteor 1-23 Rocket 4.1 17:11:45 10° S 17:17:25 81° E 17:23:03 10° NNE
Meteor 1-16 Rocket 4.1 17:14:16 10° NNW 17:19:36 85° W 17:24:59 10° S
Cosmos 1340 Rocket 2.6 17:20:02 10° N 17:23:50 68° ENE 17:27:39 10° SSE
Cosmos 2056 Rocket 4.3 17:21:00 10° SW 17:25:57 48° WNW 17:30:55 10° NNE
IRS-P3 4.4 17:21:00 10° S 17:26:17 72° WSW 17:31:38 10° NNW
Cosmos 1980 Rocket 3.2 17:23:12 10° NNW 17:27:48 25° NE 17:28:53 23° NE
Cosmos 292 Rocket 3.8 17:23:45 10° NNW 17:28:28 82° WSW 17:33:10 10° SSE
COSMO-SKYMED 1 2.8 17:27:24 26° NE 17:29:09 40° E 17:33:02 10° SSE
Meteor 1-21 4.2 17:24:23 10° S 17:29:59 90° ESE 17:35:38 10° NNE
ARIANE 5 R/B 3.7 17:26:51 10° S 17:31:52 47° W 17:36:55 10° NNW
Cosmos 2181 Rocket 4.0 17:30:03 10° S 17:36:14 88° W 17:42:32 10° N
CARTOSAT-1 3.5 17:35:54 10° SSE 17:40:01 56° ENE 17:44:10 10° N
USA 267 3.2 17:35:59 23° ESE 17:40:24 76° NNE 17:46:57 10° WNW
Meteor 2-8 Rocket 4.4 17:34:35 10° N 17:40:42 63° ENE 17:46:48 10° SSE
SL-16 R/B 3.9 17:35:41 10° N 17:41:12 36° WNW 17:46:43 10° WSW
Cosmos 1869 Rocket 3.4 17:37:12 10° N 17:41:38 85° E 17:46:00 10° S
Meteor 2-15 Rocket 4.4 17:38:19 10° N 17:44:31 89° ENE 17:50:39 10° S
DNEPR-1 R/B 3.4 17:40:23 10° SSW 17:44:43 71° SE 17:46:01 42° ENE
Cosmos 2219 Rocket 4.3 17:45:50 10° NNW 17:47:34 11° N 17:48:58 10° NNE
Cosmos 1697 Rocket 2.8 17:46:42 10° NNW 17:52:18 55° NE 17:54:36 33° ESE
Resurs 1-3 3.9 17:49:55 10° S 17:54:12 65° WSW 17:58:30 10° NNW
Cosmos 2360 Rocket 4.2 17:54:29 10° NNW 17:56:59 13° NNE 17:57:21 13° NNE
YAOGAN 3 4.3 17:53:16 10° SSE 17:57:28 75° ENE 18:01:42 10° NNW
Okean 3 3.2 17:53:26 10° S 17:57:30 81° E 17:58:56 39° NNE
Cosmos 1934 Rocket 3.9 17:51:29 10° N 17:57:35 66° ENE 18:03:46 10° SSE
SL-16 R/B 3.9 17:54:30 10° NNW 17:57:52 16° NNE 17:57:52 16° NNE
Cosmos 1603 3.9 17:52:38 10° SW 17:58:16 71° WNW 18:02:06 21° NNE
Cosmos 1331 Rocket 4.3 17:54:58 10° SW 18:00:02 63° WNW 18:03:49 18° NNE
Cosmos 1833 Rocket 3.3 17:58:17 10° S 18:02:47 36° ESE 18:02:47 36° ESE
USA 59 Rocket -0.5 18:02:11 10° NW 18:05:27 88° WSW 18:05:27 88° WSW
COSMOS 2455 2.9 18:00:01 10° NW 18:05:58 56° NE 18:07:25 45° E
PSLV R/B 3.9 18:04:51 10° S 18:08:58 62° WSW 18:13:07 10° NNW
NOSS 2-1 (E) 3.6 18:06:22 10° NW 18:08:49 49° NNW 18:08:49 49° NNW
Okean 2 4.1 18:07:07 10° SSW 18:10:51 49° WNW 18:13:11 21° N
Cosmos 1302 Rocket 3.9 18:06:07 10° SSW 18:11:22 80° ESE 18:13:11 42° NNE
NOSS 2-1 (C) 3.4 18:08:12 10° NW 18:10:49 57° NW 18:10:49 57° NW
SKYMED 2 4.3 18:08:22 12° N 18:12:17 52° WNW 18:16:31 10° SW
ATLAS 5 CENTAUR R/B 2.8 18:16:22 10° W 18:18:39 22° NNW 18:18:39 22° NNW
Nadezhda 3 Rocket 4.0 18:14:45 10° SSW 18:20:54 78° W 18:27:07 10° N
NOSS 3-4 (A) 3.4 18:16:18 10° WSW 18:21:39 65° NW 18:23:41 40° NNE
NOSS 3-4 (C) 3.5 18:16:26 10° WSW 18:21:48 66° NW 18:23:52 40° NNE
RESURS DK-1 2.5 18:18:03 10° SW 18:21:45 69° W 18:21:45 69° W
YAOGAN 1 4.1 18:19:26 10° SSW 18:23:21 35° W 18:27:17 10° NNW
ATLAS 3B R/B 3.9 18:21:19 10° WNW 18:28:28 36° N 18:30:46 30° NE
ISS -1.9 18:26:59 10° WSW 18:28:48 29° WSW 18:28:48 29° WSW
Cosmos 1452 Rocket 4.3 18:26:27 10° SW 18:31:31 48° WNW 18:34:20 25° N
Cosmos 1535 Rocket 4.4 18:26:45 10° N 18:33:12 77° E 18:37:18 24° SSE
Cosmos 1486 Rocket 4.5 18:30:02 10° NNW 18:34:05 48° N 18:34:05 48° N
NOSS 3-1 (A) 3.9 18:29:26 10° NW 18:35:56 59° NE 18:37:03 54° ENE
Cosmos 1992 Rocket 4.2 18:34:20 10° SSW 18:38:30 58° S 18:38:30 58° S
Resurs 01 Rocket 2.4 18:36:42 10° S 18:40:57 50° W 18:45:14 10° NNW
Cosmos 2333 Rocket 4.0 18:38:18 10° NNW 18:40:57 19° N 18:40:57 19° N
SL-16 R/B 4.4 18:40:37 10° WNW 18:44:06 16° NNW 18:46:45 12° N
USA 215 3.3 18:47:35 59° SE 18:47:39 59° SE 18:54:05 10° SW
Cosmos 2322 Rocket 4.1 18:44:44 10° NNW 18:46:50 16° N 18:46:50 16° N
BREEZE-M DEB (TANK) 4.1 18:46:33 10° WSW 18:48:38 44° SW 18:48:38 44° SW
NOSS 3-1 (C) 3.9 18:43:58 10° NW 18:50:48 82° SW 18:53:19 49° SSE
Cosmos 1733 Rocket 4.1 18:47:36 10° NNW 18:51:06 43° WNW 18:51:06 43° WNW
Cosmos 909 Rocket 4.5 18:50:06 10° SSW 18:56:24 54° SSE 18:56:24 54° SSE
Meteor 2-19 Rocket 4.4 18:54:37 10° SSW 19:00:45 79° W 19:01:50 62° N
COSMO-SKYMED 1 4.4 19:03:42 25° NW 19:04:18 26° WNW 19:07:43 10° WSW
Cosmos 1605 Rocket 4.2 19:02:08 10° NNW 19:08:30 70° W 19:10:33 44° SSW
Cosmos 1980 Rocket 3.0 19:06:54 10° NNW 19:10:39 44° NNW 19:10:39 44° NNW
USA 267 3.6 19:23:20 53° SSW 19:23:39 54° SW 19:30:03 10° WNW
Cosmos 1697 Rocket 4.1 19:31:01 10° NW 19:36:01 33° WSW 19:36:24 33° WSW
Cosmos 2360 Rocket 4.5 19:38:02 10° NNW 19:39:05 15° NNW 19:39:05 15° NNW
SL-16 R/B 4.3 19:38:10 10° NNW 19:39:42 18° NNW 19:39:42 18° NNW
Cosmos 1833 Rocket 4.3 19:41:43 10° SW 19:44:31 28° WSW 19:44:31 28° WSW
COSMOS 2455 4.2 19:46:13 10° NW 19:50:34 35° W 19:50:34 35° W
ATLAS 3B R/B 4.1 20:13:12 10° NW 20:18:00 36° NNW 20:18:00 36° NNW
